[[{"header":{"parameterUnit":"m.s-1","parameterCategory":1,"la1":30.2991,"la2":30.254,"lo1":-89.0895,"lo2":-89.0444,"dy":0.0017,"dx":0.0017,"nx":28,"ny":28,"refTime":"2025-05-17T03:00:00:Z","depth":0,"parameterNumber":2,"parameterNumberName":"U-component_of_WINDS"},"data":[0,0,0,0,0,0,0,0,0,0,0,0,0,0,0,0,0,0,0,0,0,0,0,0,0,0,0,0,0,0,0,0,0,0,0,0,0,0,0,0,0,0,0,0,0,0,0,0,0,0,0,0,0,0,0,0,0,0,-0.2273,-0.2273,0,-0.2198,-0.2197,-0.2197,-0.2172,-0.2172,-0.2172,-0.2173,-0.2094,-0.2092,-0.209,0,0,0,0,0,0,0,0,0,0,0,0,0,-0.2394,-0.2392,-0.2274,-0.2273,-0.2272,-0.2198,-0.2197,-0.2196,-0.2172,-0.2172,-0.2173,-0.2173,-0.2095,-0.2092,-0.2089,0,0,0,0,0,0,0,0,0,0,0,0,0,-0.2333,-0.2391,-0.2274,-0.2251,-0.2248,-0.2199,-0.2197,-0.2196,-0.2172,-0.2172,-0.2173,-0.2173,-0.2096,-0.2093,-0.2089,-0.2057,0,0,-0.2078,-0.2077,0,0,0,0,0,0,0,0,-0.2336,-0.2328,-0.2255,-0.2252,-0.2249,-0.2195,-0.2211,-0.2149,-0.2172,-0.2201,-0.2173,-0.2173,-0.2127,-0.2121,-0.2106,-0.2054,-0.205,-0.2078,-0.2076,-0.2074,-0.2073,0,0,0,0,0,0,0,-0.234,-0.2331,-0.2244,-0.2254,-0.225,-0.2243,-0.2235,-0.2199,-0.2162,-0.2198,-0.2196,-0.2188,-0.2126,-0.211,-0.2104,-0.2049,-0.2078,-0.2075,-0.2073,-0.2071,-0.1966,-0.1965,0,0,0,0,0,0,-0.2349,-0.2335,-0.2246,-0.2241,-0.2295,-0.2241,-0.2232,-0.2212,-0.2162,-0.2155,-0.2187,-0.2187,-0.2115,-0.2108,-0.2101,-0.206,-0.2074,-0.2071,-0.2069,-0.1966,-0.1965,-0.1965,0,0,0,0,0,0,-0.2351,-0.2341,-0.2249,-0.2288,-0.2275,-0.2238,-0.2216,-0.221,-0.2194,-0.2154,-0.2147,-0.2178,-0.2116,-0.2106,-0.2068,-0.2057,-0.2069,-0.2066,-0.1967,-0.1966,-0.1965,-0.1978,0,0,0,0,0,0,-0.2355,-0.2342,-0.233,-0.2288,-0.2274,-0.2218,-0.2215,-0.2208,-0.2188,-0.2186,-0.2143,-0.2137,-0.2115,-0.2074,-0.2065,-0.2052,-0.2063,-0.1968,-0.1966,-0.1965,-0.1978,-0.1977,-0.1976,0,0,0,0,0,-0.2359,-0.2337,-0.233,-0.2319,-0.2258,-0.2217,-0.2209,-0.2185,-0.2187,-0.2174,-0.2149,-0.2138,-0.206,-0.207,-0.206,-0.2046,-0.1968,-0.1967,-0.1965,-0.1978,-0.1977,-0.1976,0,0,0,0,0,0,-0.2378,-0.2331,-0.2322,-0.2285,-0.2256,-0.2213,-0.2197,-0.2185,-0.2154,-0.2154,-0.2125,-0.2116,-0.208,-0.2059,-0.2071,-0.2012,-0.2013,-0.201,-0.2027,-0.2025,-0.2025,-0.203,-0.206,0,0,0,0,0,-0.2378,-0.235,-0.231,-0.2281,-0.2266,-0.2234,-0.2216,-0.22,-0.2168,-0.2155,-0.2127,-0.2096,-0.2064,-0.2044,-0.2012,-0.1975,-0.1965,-0.196,-0.196,-0.1959,-0.1956,-0.1934,-0.1931,-0.196,-0.196,-0.196,0,0,-0.2378,-0.2348,-0.2332,-0.2284,-0.2259,-0.223,-0.2224,-0.2193,-0.2171,-0.215,-0.2113,-0.2091,-0.2054,-0.2016,-0.1998,-0.1998,-0.1946,-0.1957,-0.1957,-0.1954,-0.1932,-0.1929,-0.1927,-0.1959,-0.1959,-0.1959,0,0,-0.2362,-0.2337,-0.231,-0.2285,-0.2247,-0.2226,-0.222,-0.2179,-0.2164,-0.2125,-0.2109,-0.2082,-0.2028,-0.2003,-0.1982,-0.1956,-0.1945,-0.1947,-0.1942,-0.1921,-0.1919,-0.1917,-0.1907,-0.1903,-0.1944,-0.1944,-0.1944,0,-0.2366,-0.2321,-0.2297,-0.2267,-0.2246,-0.2226,-0.2198,-0.2175,-0.2129,-0.2115,-0.2115,-0.2047,-0.2021,-0.1976,-0.197,-0.1954,-0.1945,-0.1951,-0.1921,-0.1919,-0.1916,-0.1906,-0.1903,-0.1945,-0.1944,-0.1944,-0.1944,0,-0.2328,-0.2297,-0.2279,-0.2236,-0.2213,-0.2184,-0.2155,-0.2134,-0.212,-0.2099,-0.206,-0.2028,-0.1989,-0.1978,-0.1964,-0.1931,-0.1931,-0.1927,-0.1928,-0.1915,-0.1905,-0.1901,-0.1945,-0.1945,-0.1945,-0.1945,0,0,-0.2321,-0.2264,-0.2258,-0.2238,-0.2195,-0.2171,-0.2141,-0.2103,-0.2086,-0.2055,-0.2028,-0.1983,-0.1979,-0.1956,-0.1939,-0.192,-0.1901,-0.1918,-0.1916,-0.1915,-0.1861,-0.1864,-0.186,-0.1893,-0.1892,-0.1892,-0.1864,0,-0.2299,-0.2245,-0.2222,-0.2178,-0.2149,-0.213,-0.2103,-0.2074,-0.2053,-0.2025,-0.2001,-0.1969,-0.1966,-0.1952,-0.1933,-0.1907,-0.1889,-0.1909,-0.1867,-0.1866,-0.1876,-0.1855,-0.1859,-0.1834,-0.186,-0.1859,-0.1859,0,-0.2266,-0.2235,-0.2188,-0.2148,-0.2135,-0.2112,-0.2075,-0.2049,-0.2015,-0.2001,-0.1975,-0.1959,-0.1926,-0.193,-0.1883,-0.1897,-0.1879,-0.1864,-0.1862,-0.1857,-0.1861,-0.1849,-0.1826,-0.1822,-0.1853,-0.1853,-0.1854,0,-0.2265,-0.2212,-0.2177,-0.216,-0.2112,-0.2096,-0.2076,-0.2042,-0.2021,-0.1989,-0.1975,-0.194,-0.192,-0.1893,-0.1867,-0.1872,-0.1823,-0.1824,-0.1809,-0.181,-0.1799,-0.18,-0.1772,-0.1789,-0.1789,-0.1789,-0.1789,0,-0.2243,-0.2215,-0.2176,-0.2154,-0.2122,-0.2095,-0.2064,-0.2042,-0.2012,-0.1985,-0.1966,-0.1942,-0.191,-0.1881,-0.186,-0.1824,-0.1816,-0.1803,-0.1798,-0.1804,-0.1806,-0.1791,-0.1792,-0.1788,-0.1788,-0.1788,-0.1788,0,-0.2236,-0.2209,-0.2169,-0.2128,-0.2116,-0.2094,-0.2058,-0.2036,-0.2014,-0.1981,-0.1971,-0.1936,-0.1901,-0.1873,-0.1827,-0.1813,-0.1775,-0.177,-0.1787,-0.1784,-0.1771,-0.1772,-0.1732,-0.1725,-0.1747,-0.1747,-0.1747,0,-0.2223,-0.2201,-0.2157,-0.2138,-0.2117,-0.2087,-0.2065,-0.2038,-0.2016,-0.1975,-0.1958,-0.1921,-0.1891,-0.1835,-0.1805,-0.177,-0.1763,-0.1751,-0.1757,-0.1764,-0.1761,-0.1763,-0.176,-0.175,-0.175,-0.175,-0.175,0,-0.2203,-0.219,-0.216,-0.2124,-0.2099,-0.207,-0.204,-0.2025,-0.1993,-0.1969,-0.1933,-0.1909,-0.1862,-0.1825,-0.1787,-0.1765,-0.1751,-0.1749,-0.1743,-0.1749,-0.1759,-0.1753,-0.1784,-0.1749,-0.1749,-0.175,-0.175,-0.175,-0.2192,-0.2171,-0.2137,-0.2103,-0.2078,-0.205,-0.2027,-0.2002,-0.1972,-0.1932,-0.1917,-0.188,-0.1846,-0.1792,-0.177,-0.174,-0.1739,-0.1731,-0.1729,-0.1727,-0.1728,-0.1765,-0.1733,-0.1733,-0.1733,-0.1733,-0.1733,0,-0.217,-0.2147,-0.2116,-0.2075,-0.2048,-0.2039,-0.2005,-0.1984,-0.1951,-0.192,-0.189,-0.1848,-0.1813,-0.178,-0.1743,-0.1725,-0.1718,-0.1716,-0.1717,-0.1712,-0.1731,-0.1739,-0.1723,-0.1723,-0.1723,-0.1723,-0.1723,-0.1723,-0.2155,-0.2119,-0.2103,-0.2054,-0.203,-0.1994,-0.1975,-0.195,-0.1925,-0.1879,-0.1849,-0.1828,-0.1797,-0.1757,-0.1724,-0.1715,-0.1702,-0.1701,-0.1691,-0.1709,-0.1711,-0.1712,-0.1719,-0.1699,-0.1699,-0.1674,-0.1674,-0.1673]},{"header":{"parameterUnit":"m.s-1","parameterCategory":1,"la1":30.2991,"la2":30.254,"lo1":-89.0895,"lo2":-89.0444,"dy":0.0017,"dx":0.0017,"nx":28,"ny":28,"refTime":"2025-05-17T03:00:00:Z","depth":0,"parameterNumber":3,"parameterNumberName":"V-component_of_WINDS"},"data":[0,0,0,0,0,0,0,0,0,0,0,0,0,0,0,0,0,0,0,0,0,0,0,0,0,0,0,0,0,0,0,0,0,0,0,0,0,0,0,0,0,0,0,0,0,0,0,0,0,0,0,0,0,0,0,0,0,0,4.0432,4.0432,0,4.0357,4.0357,4.0356,4.0281,4.028,4.0279,4.0278,4.0198,4.0196,4.0195,0,0,0,0,0,0,0,0,0,0,0,0,0,4.0509,4.0508,4.0432,4.0431,4.0431,4.0358,4.0357,4.0355,4.0281,4.0279,4.0278,4.0277,4.0198,4.0197,4.0195,0,0,0,0,0,0,0,0,0,0,0,0,0,4.0459,4.0508,4.0433,4.0384,4.0379,4.0358,4.0356,4.0355,4.0281,4.0279,4.0278,4.0277,4.0198,4.0197,4.0195,4.0214,0,0,4.0189,4.0189,0,0,0,0,0,0,0,0,4.0462,4.0456,4.0392,4.0388,4.0382,4.0327,4.0354,4.0308,4.0281,4.0318,4.0278,4.0276,4.0242,4.0236,4.0225,4.021,4.0206,4.0189,4.0188,4.0187,4.0187,0,0,0,0,0,0,0,4.0466,4.0459,4.0403,4.0392,4.0385,4.0366,4.0357,4.0345,4.0289,4.0315,4.0309,4.0302,4.0238,4.0227,4.0223,4.0205,4.0189,4.0188,4.0187,4.0186,4.0203,4.0205,0,0,0,0,0,0,4.0477,4.0462,4.0405,4.04,4.0419,4.0366,4.0356,4.0346,4.0289,4.0279,4.0303,4.0298,4.0231,4.0225,4.022,4.0239,4.0187,4.0186,4.0185,4.0202,4.0204,4.0205,0,0,0,0,0,0,4.0479,4.0472,4.0408,4.043,4.042,4.0366,4.0355,4.0345,4.0334,4.028,4.0269,4.0302,4.023,4.0222,4.0216,4.0235,4.0185,4.0183,4.02,4.0202,4.0205,4.0277,0,0,0,0,0,0,4.0481,4.0473,4.048,4.0431,4.0419,4.0407,4.0357,4.0345,4.0332,4.0325,4.0276,4.0267,4.0228,4.022,4.0215,4.0232,4.0182,4.0198,4.0201,4.0204,4.0273,4.0282,4.0289,0,0,0,0,0,4.0484,4.0502,4.0481,4.0474,4.0427,4.0408,4.0401,4.0357,4.0333,4.034,4.0305,4.0268,4.0234,4.022,4.0213,4.023,4.0197,4.02,4.0204,4.0269,4.028,4.0289,0,0,0,0,0,0,4.0554,4.0495,4.047,4.0473,4.0447,4.0395,4.0401,4.037,4.0348,4.0342,4.0288,4.0277,4.0278,4.0253,4.0238,4.0246,4.021,4.0213,4.0262,4.0272,4.028,4.0286,4.018,0,0,0,0,0,4.057,4.056,4.0509,4.0516,4.0504,4.0456,4.0446,4.0414,4.0384,4.0371,4.0336,4.0307,4.029,4.028,4.0261,4.0269,4.0258,4.0278,4.0286,4.0293,4.0296,4.03,4.0309,4.0217,4.0217,4.0217,0,0,4.0602,4.0569,4.0566,4.053,4.0505,4.0496,4.0446,4.0438,4.0431,4.0369,4.0362,4.0336,4.03,4.0302,4.0301,4.0282,4.0319,4.0298,4.0304,4.0302,4.0305,4.0313,4.0321,4.0219,4.0219,4.0218,0,0,4.0657,4.063,4.0635,4.0612,4.0576,4.0544,4.0545,4.0499,4.048,4.0472,4.0427,4.0417,4.0388,4.0365,4.0349,4.0398,4.0363,4.0393,4.0436,4.0441,4.0448,4.0454,4.0472,4.0479,4.0396,4.0396,4.0396,0,4.0701,4.0686,4.064,4.0636,4.0622,4.0568,4.0572,4.0552,4.0511,4.0502,4.0481,4.0446,4.0417,4.0414,4.0427,4.0415,4.0415,4.0398,4.0451,4.0456,4.0462,4.0478,4.0485,4.04,4.04,4.0399,4.0399,0,4.0743,4.0734,4.0741,4.0705,4.0692,4.0692,4.0646,4.0638,4.0609,4.0579,4.0573,4.0538,4.0511,4.0508,4.0478,4.0501,4.049,4.0461,4.0424,4.0475,4.049,4.0496,4.0406,4.0404,4.0403,4.0402,0,0,4.0837,4.0779,4.0782,4.0766,4.0724,4.0715,4.0713,4.0689,4.0684,4.0658,4.0655,4.0633,4.0606,4.0589,4.0556,4.0561,4.0603,4.053,4.0529,4.0546,4.0627,4.065,4.0658,4.058,4.0581,4.0582,4.0631,0,4.0885,4.0879,4.0839,4.0844,4.0835,4.0785,4.0783,4.0757,4.073,4.0718,4.0687,4.0673,4.0639,4.0628,4.063,4.0598,4.0619,4.0593,4.0577,4.0577,4.0588,4.0666,4.0689,4.0736,4.0636,4.0637,4.0638,0,4.0939,4.0919,4.0924,4.0883,4.0878,4.0877,4.0853,4.0843,4.0812,4.0792,4.0775,4.0739,4.0734,4.07,4.0692,4.0676,4.0667,4.065,4.0651,4.0648,4.061,4.0665,4.075,4.0758,4.0646,4.0645,4.0645,0,4.1008,4.0982,4.0982,4.097,4.0923,4.0924,4.0904,4.0872,4.0861,4.084,4.0832,4.081,4.0798,4.0782,4.0742,4.072,4.0739,4.0701,4.0723,4.0724,4.0728,4.0729,4.0814,4.0723,4.0723,4.0722,4.0722,0,4.1065,4.107,4.1013,4.1013,4.1018,4.0972,4.0978,4.0953,4.0926,4.0921,4.0876,4.0871,4.0818,4.0807,4.0776,4.0775,4.077,4.0754,4.0745,4.0758,4.076,4.0751,4.0747,4.0724,4.0724,4.0724,4.0723,0,4.1143,4.1105,4.1102,4.1059,4.1048,4.1053,4.1016,4.1014,4.0985,4.0979,4.0974,4.0929,4.0914,4.0873,4.0847,4.0826,4.0835,4.0819,4.0846,4.084,4.0865,4.0863,4.0947,4.0956,4.0859,4.086,4.0861,0,4.1182,4.1185,4.1143,4.1137,4.1119,4.111,4.1099,4.1054,4.1045,4.1012,4.1015,4.0997,4.0981,4.0961,4.0925,4.0905,4.0889,4.092,4.0885,4.0899,4.089,4.089,4.0891,4.0927,4.0928,4.0929,4.093,0,4.1255,4.1237,4.1224,4.1205,4.1193,4.1176,4.1155,4.1153,4.1103,4.1095,4.1081,4.1068,4.1044,4.1027,4.1003,4.0982,4.0948,4.0942,4.0945,4.0958,4.0974,4.0967,4.0867,4.0939,4.0938,4.0938,4.0937,4.0937,4.1315,4.1316,4.1288,4.1275,4.1255,4.1238,4.1235,4.1207,4.1195,4.1172,4.1147,4.1136,4.1107,4.1071,4.1053,4.1044,4.1026,4.1031,4.1033,4.1035,4.1041,4.0976,4.1039,4.1039,4.1038,4.1038,4.1038,0,4.1387,4.1367,4.1355,4.1329,4.132,4.1291,4.1267,4.1261,4.1252,4.1229,4.1215,4.1199,4.1184,4.1148,4.1129,4.1129,4.1113,4.1125,4.1125,4.1121,4.1058,4.1057,4.1139,4.1139,4.1139,4.1139,4.1139,4.1139,4.1423,4.1424,4.1403,4.1395,4.1374,4.1364,4.1353,4.1337,4.1319,4.1304,4.1292,4.1269,4.1241,4.122,4.1205,4.1195,4.119,4.1208,4.1193,4.1135,4.1125,4.1116,4.1115,4.1207,4.1207,4.1256,4.1257,4.1257]}]]